Location: Chandolas
(44.4033°N, 4.2533°E)
Time: 18:25:27
(UTC+00:00)

Cosmos 990 Rocket - Pass Details

Date: 15 November 2019
Orbit: 746 x 770 km, 74.0° (Epoch: 10 December)

Event Time Altitude Azimuth Distance (km) Brightness Sun altitude
Rises 04:20:00 0° 189° (S) 3,183 7.1 -24.7°
Reaches altitude 10° 04:22:22 10° 186° (S) 2,266 6.4 -24.3°
Maximum altitude 04:27:25 63° 107° (ESE) 845 4.4 -23.4°
Drops below altitude 10° 04:32:34 10° 27° (NNE) 2,298 6.7 -22.4°
Sets 04:34:58 0° 24° (NNE) 3,231 7.5 -22.0°
